Date String (YYYY-MM-DD hh:mm:ss) UTC,Instrument flags,absolute air pressure of the measurement (hPa),sample flow rate (lpm),inlet stack bypass flow (lpm),air temperature of the measurement (°C),ambient temperature measured by the external sensor (°C),aerosol sample conditioner tube jacket temperature (°C),OPC LED temperature (°C),internal box temperature (°C),relative humidity of the measurement (%),span deviation,mass concentration of particles derived from Lorenz-Mie calculation of OPC scattering (μg/m³),mass concentration of particles derived from Lorenz-Mie calculation of OPC scattering (μg/m³),mass concentration of particles derived from Lorenz-Mie calculation of OPC scattering (μg/m³)
DateTimeUTC,F1_M11,P_M11,Q1_M11,Q2_M11,T1_M11,T2_M11,T3_M11,T4_M11,T5_M11,U1_M11,ZSPAN_M11,X2_M11,X0_M11,X1_M11
2023-07-29 12:00:00,SystemResetWarning,0836.2,5.00,000.00,029.5,027.7,000.0,038.0,031.0,31.5,0000.0,0005.48,0014.63,0004.37
2023-07-29 12:01:00,SystemResetWarning,0836.2,5.00,000.00,029.5,027.8,000.0,038.0,031.1,31.4,0000.0,0005.47,0014.82,0004.35
2023-07-29 12:02:00,SystemResetWarning,0836.2,5.00,000.00,029.5,027.9,000.0,038.0,031.1,31.3,0000.0,0005.51,0015.77,0004.34
2023-07-29 12:03:00,SystemResetWarning,0836.2,5.00,000.00,029.5,028.0,000.0,038.0,031.1,31.3,0000.0,0005.58,0017.39,0004.33
2023-07-29 12:04:00,SystemResetWarning,0836.2,5.00,000.00,029.6,028.1,000.0,038.0,031.1,31.2,0000.0,0005.64,0017.94,0004.32
2023-07-29 12:05:00,SystemResetWarning,0836.3,5.00,000.00,029.6,028.2,000.0,038.0,031.1,31.1,0000.0,0005.71,0019.31,0004.31
2023-07-29 12:06:00,SystemResetWarning,0836.3,5.00,000.00,029.6,028.2,000.0,038.0,031.2,31.0,0000.0,0005.72,0019.28,0004.30
2023-07-29 12:07:00,SystemResetWarning,0836.2,5.00,000.00,029.6,028.3,000.0,038.1,031.2,31.0,0000.0,0005.74,0019.16,0004.30
2023-07-29 12:08:00,SystemResetWarning,0836.2,5.00,000.00,029.6,028.3,000.0,038.1,031.2,30.9,0000.0,0005.71,0018.92,0004.29
2023-07-29 12:09:00,SystemResetWarning,0836.2,5.00,000.00,029.7,028.3,000.0,038.1,031.2,30.9,0000.0,0005.67,0017.90,0004.27
2023-07-29 12:10:00,SystemResetWarning,0836.2,5.00,000.00,029.7,028.4,000.0,038.1,031.2,30.8,0000.0,0005.65,0017.55,0004.26
2023-07-29 12:11:00,SystemResetWarning,0836.2,5.00,000.00,029.7,028.4,000.0,038.1,031.3,30.7,0000.0,0005.61,0017.16,0004.23
2023-07-29 12:12:00,SystemResetWarning,0836.2,5.00,000.00,029.7,028.4,000.0,038.1,031.3,30.6,0000.0,0005.62,0017.12,0004.22
2023-07-29 12:13:00,SystemResetWarning,0836.2,5.00,000.00,029.7,028.4,000.0,038.1,031.3,30.6,0000.0,0005.60,0016.49,0004.21
2023-07-29 12:14:00,SystemResetWarning,0836.2,5.00,000.00,029.7,028.4,000.0,038.2,031.3,30.5,0000.0,0005.55,0015.27,0004.19
2023-07-29 12:15:00,SystemResetWarning,0836.2,4.99,000.00,029.8,028.4,000.0,038.2,031.3,30.4,0000.0,0005.50,0015.12,0004.18
2023-07-29 12:16:00,SystemResetWarning,0836.1,4.99,000.00,029.8,028.5,000.0,038.2,031.3,30.3,0000.0,0005.45,0014.17,0004.17
2023-07-29 12:17:00,SystemResetWarning,0836.1,4.99,000.00,029.8,028.5,000.0,038.2,031.3,30.2,0000.0,0005.46,0013.19,0004.16
2023-07-29 12:18:00,SystemResetWarning,0836.1,5.01,000.00,029.8,028.5,000.0,038.2,031.3,30.1,0000.0,0005.45,0013.72,0004.15
2023-07-29 12:19:00,SystemResetWarning,0836.2,5.01,000.00,029.8,028.5,000.0,038.2,031.4,30.0,0000.0,0005.44,0013.88,0004.14
2023-07-29 12:20:00,SystemResetWarning,0836.2,5.01,000.00,029.8,028.5,000.0,038.2,031.4,30.0,0000.0,0005.40,0013.55,0004.12
2023-07-29 12:21:00,SystemResetWarning,0836.2,4.99,000.00,029.8,028.5,000.0,038.2,031.4,30.0,0000.0,0005.37,0013.95,0004.11
2023-07-29 12:22:00,SystemResetWarning,0836.2,4.99,000.00,029.8,028.5,000.0,038.3,031.4,29.9,0000.0,0005.37,0014.23,0004.10
2023-07-29 12:23:00,SystemResetWarning,0836.2,5.00,000.00,029.9,028.5,000.0,038.3,031.4,29.9,0000.0,0005.36,0014.25,0004.08
2023-07-29 12:24:00,SystemResetWarning,0836.2,5.01,000.00,029.9,028.5,000.0,038.3,031.4,29.9,0000.0,0005.36,0014.50,0004.06
2023-07-29 12:25:00,SystemResetWarning,0836.2,5.00,000.00,029.9,028.5,000.0,038.3,031.4,29.8,0000.0,0005.32,0015.30,0004.04
2023-07-29 12:26:00,SystemResetWarning,0836.2,5.00,000.00,029.9,028.5,000.0,038.3,031.4,29.8,0000.0,0005.32,0014.96,0004.02
2023-07-29 12:27:00,SystemResetWarning,0836.2,5.00,000.00,029.9,028.5,000.0,038.3,031.4,29.6,0000.0,0005.38,0015.09,0004.00
2023-07-29 12:28:00,SystemResetWarning,0836.2,5.00,000.00,029.9,028.6,000.0,038.3,031.5,29.5,0000.0,0005.34,0015.37,0003.97
2023-07-29 12:29:00,SystemResetWarning,0836.2,5.01,000.00,029.9,028.6,000.0,038.4,031.5,29.5,0000.0,0005.27,0014.83,0003.95
2023-07-29 12:30:00,SystemResetWarning,0836.2,5.00,000.00,029.9,028.6,000.0,038.4,031.5,29.4,0000.0,0005.23,0013.87,0003.92
2023-07-29 12:31:00,SystemResetWarning,0836.2,4.99,000.00,030.0,028.6,000.0,038.4,031.5,29.3,0000.0,0005.22,0013.74,0003.91
2023-07-29 12:32:00,SystemResetWarning,0836.2,5.00,000.00,030.0,028.6,000.0,038.4,031.5,29.2,0000.0,0005.21,0013.79,0003.90
2023-07-29 12:33:00,SystemResetWarning,0836.1,5.00,000.00,030.0,028.6,000.0,038.4,031.5,29.0,0000.0,0005.15,0013.45,0003.89
2023-07-29 12:34:00,SystemResetWarning,0836.1,5.00,000.00,030.0,028.7,000.0,038.4,031.5,28.6,0000.0,0005.11,0013.00,0003.89
2023-07-29 12:35:00,SystemResetWarning,0836.1,4.99,000.00,030.0,028.7,000.0,038.4,031.5,28.1,0000.0,0005.11,0013.09,0003.89
2023-07-29 12:36:00,SystemResetWarning,0836.1,4.99,000.00,030.0,028.1,000.0,038.4,031.5,27.7,0000.0,0005.11,0012.19,0003.90
2023-07-29 12:37:00,SystemResetWarning,0836.1,5.00,000.00,030.0,026.2,000.0,038.3,031.3,27.3,0000.0,0005.08,0012.03,0003.89
2023-07-29 12:38:00,SystemResetWarning,0836.1,5.01,000.00,029.9,025.5,000.0,038.2,031.1,27.3,0000.0,0005.04,0012.18,0003.88
2023-07-29 12:39:00,SystemResetWarning,0836.1,5.01,000.00,029.7,025.6,000.0,038.2,030.8,27.4,0000.0,0005.04,0011.93,0003.88
2023-07-29 12:40:00,SystemResetWarning,0836.1,5.01,000.00,029.6,025.9,000.0,038.2,030.8,27.6,0000.0,0005.12,0012.33,0003.89
2023-07-29 12:41:00,SystemResetWarning,0836.1,5.00,000.00,029.6,026.3,000.0,038.2,030.8,27.7,0000.0,0005.18,0012.43,0003.90
2023-07-29 12:42:00,SystemResetWarning,0836.1,5.00,000.00,029.6,026.7,000.0,038.2,030.9,27.5,0000.0,0005.19,0012.47,0003.89
2023-07-29 12:43:00,SystemResetWarning,0836.1,5.00,000.00,029.5,027.0,000.0,038.2,030.9,27.4,0000.0,0005.17,0012.20,0003.89
2023-07-29 12:44:00,SystemResetWarning,0836.2,5.01,000.00,029.5,027.2,000.0,038.2,031.0,27.4,0000.0,0005.20,0012.18,0003.89
2023-07-29 12:45:00,SystemResetWarning,0836.2,5.00,000.00,029.5,027.4,000.0,038.1,031.0,27.4,0000.0,0005.23,0012.20,0003.89
2023-07-29 12:46:00,SystemResetWarning,0836.2,4.99,000.00,029.6,027.6,000.0,038.1,031.0,27.4,0000.0,0005.22,0011.71,0003.89
2023-07-29 12:47:00,SystemResetWarning,0836.2,5.00,000.00,029.6,027.8,000.0,038.1,031.1,27.4,0000.0,0005.25,0011.67,0003.89
2023-07-29 12:48:00,SystemResetWarning,0836.2,5.01,000.00,029.6,027.9,000.0,038.1,031.1,27.3,0000.0,0005.30,0011.82,0003.89
2023-07-29 12:49:00,SystemResetWarning,0836.3,5.00,000.00,029.6,028.0,000.0,038.1,031.1,27.5,0000.0,0005.30,0011.76,0003.90
2023-07-29 12:50:00,SystemResetWarning,0836.2,5.00,000.00,029.6,028.0,000.0,038.1,031.1,27.5,0000.0,0005.21,0011.86,0003.89
2023-07-29 12:51:00,SystemResetWarning,0836.3,5.01,000.00,029.6,028.1,000.0,038.1,031.2,27.5,0000.0,0005.20,0011.81,0003.90
2023-07-29 12:52:00,SystemResetWarning,0836.3,5.00,000.00,029.6,028.2,000.0,038.1,031.2,27.6,0000.0,0005.16,0011.76,0003.91
2023-07-29 12:53:00,SystemResetWarning,0836.3,5.00,000.00,029.6,028.3,000.0,038.1,031.2,27.3,0000.0,0005.18,0011.77,0003.93
2023-07-29 12:54:00,SystemResetWarning,0836.4,5.00,000.00,029.7,028.3,000.0,038.1,031.2,26.9,0000.0,0005.23,0011.94,0003.94
2023-07-29 12:55:00,SystemResetWarning,0836.3,5.00,000.00,029.7,028.4,000.0,038.2,031.3,26.8,0000.0,0005.24,0012.02,0003.96
2023-07-29 12:56:00,SystemResetWarning,0836.4,5.00,000.00,029.7,028.4,000.0,038.2,031.3,26.6,0000.0,0005.19,0011.85,0003.97
2023-07-29 12:57:00,SystemResetWarning,0836.4,5.00,000.00,029.7,028.5,000.0,038.2,031.3,26.6,0000.0,0005.15,0011.72,0003.99
2023-07-29 12:58:00,SystemResetWarning,0836.4,5.00,000.00,029.8,028.5,000.0,038.2,031.3,26.5,0000.0,0005.12,0012.00,0004.00
2023-07-29 12:59:00,SystemResetWarning,0836.4,5.00,000.00,029.8,028.5,000.0,038.2,031.3,26.5,0000.0,0005.08,0012.05,0004.01
